Theta_e
344 344 343 340 341 337 336 332 331 328 325 324 323 322 321 322 325 328 329 343 348 351 354 357 358 357 355 354 352 352 352 352 351 351 351 351 350 350 350 350 350 349 349
344 344 342 340 339 337 335 331 328 326 324 322 321 321 323 324 327 330 334 337 346 350 352 354 357 357 357 356 355 353 352 351 351 351 351 350 350 350 350 350 350 350 348
344 344 342 340 339 336 332 329 325 324 322 322 321 321 323 324 328 332 338 340 339 349 349 350 354 356 357 358 358 356 353 351 351 350 350 350 349 349 349 350 350 349 349
346 343 343 341 340 335 332 329 326 324 323 321 321 322 324 327 329 333 337 340 340 340 346 350 351 354 356 357 358 358 355 352 350 349 349 349 350 349 349 349 350 349 348
348 344 343 343 339 336 333 331 329 323 320 321 323 324 324 326 331 336 337 339 339 339 339 344 350 350 353 355 357 358 357 353 350 349 349 349 350 350 349 349 349 349 348
350 347 345 344 341 338 335 333 330 325 322 325 328 327 326 326 329 332 335 339 340 340 338 338 338 344 349 351 353 356 357 357 353 351 350 348 349 350 349 349 348 348 348
350 348 346 344 340 337 336 333 330 329 327 327 324 322 324 327 327 330 333 337 338 339 339 338 338 339 340 347 348 351 354 357 357 353 346 346 347 348 349 349 347 346 347
344 345 345 344 341 338 336 335 331 330 330 329 324 320 317 321 325 329 331 335 336 337 338 339 337 337 338 338 339 344 349 353 354 348 342 341 343 346 348 347 346 346 346
343 344 344 342 341 338 338 336 335 332 330 330 331 326 317 317 319 325 330 333 335 336 336 336 337 338 338 338 342 344 345 345 344 345 345 344 345 347 347 346 345 346 346
343 343 342 341 342 342 339 339 338 335 335 331 328 331 326 322 318 317 329 332 335 336 335 335 336 337 338 337 340 343 340 339 341 344 345 345 346 346 347 346 345 345 345
337 342 342 341 341 341 342 340 339 337 336 334 332 327 328 327 327 322 316 325 332 335 337 336 336 335 333 335 336 336 336 334 336 338 339 340 342 343 345 347 346 345 344
329 334 337 338 340 340 339 340 339 339 336 335 333 332 328 325 325 326 321 322 323 329 330 331 333 331 331 332 336 336 333 332 332 332 333 334 337 340 343 344 343 346 346
324 326 329 332 335 339 339 339 338 337 337 334 334 332 331 329 330 328 326 321 320 324 323 324 329 330 331 329 328 335 337 332 330 329 328 330 332 336 337 339 340 340 342
319 323 325 328 331 334 336 338 339 337 337 332 330 328 327 327 329 332 327 325 318 317 318 322 324 325 325 325 329 336 335 331 327 325 326 327 329 331 333 334 335 334 333
319 319 322 323 325 330 333 335 335 336 335 334 333 330 326 327 328 329 331 329 324 319 319 321 322 328 327 328 334 335 333 331 329 326 325 325 326 326 326 326 327 328 328
316 319 321 320 319 321 325 330 333 334 331 331 330 329 328 327 326 330 332 329 328 325 320 322 322 327 332 333 335 333 332 330 328 325 325 324 323 322 322 322 323 324 326
316 319 318 318 318 320 322 325 328 331 331 330 329 327 327 326 327 332 335 331 329 327 323 323 326 327 329 330 331 334 332 330 328 324 324 322 320 320 320 319 320 320 321
311 314 317 318 320 320 321 323 324 328 328 327 326 325 327 326 322 323 327 329 329 328 325 323 325 325 326 327 328 328 330 331 329 328 322 320 318 317 317 318 316 316 315
309 312 316 315 315 317 318 319 323 325 328 326 326 326 328 323 320 322 322 321 324 330 328 326 324 324 325 324 324 325 325 325 328 330 321 318 317 316 316 316 314 313 311
307 309 312 316 317 316 317 319 320 324 325 328 330 326 325 323 323 323 324 323 324 324 327 327 323 321 322 321 322 321 319 322 324 328 326 321 317 316 315 315 315 313 309
304 306 308 312 315 315 318 319 320 322 324 324 325 326 326 326 325 325 325 322 322 320 321 324 322 319 317 316 318 318 319 317 318 321 320 322 319 318 316 315 318 315 310
301 303 305 307 310 314 312 310 314 321 324 323 322 322 323 321 318 316 318 318 322 323 324 324 321 316 315 315 316 317 315 314 313 317 318 318 322 317 317 317 314 310 308
300 301 303 307 310 311 308 305 307 315 321 321 321 321 321 322 317 319 313 312 314 315 320 323 318 313 310 311 316 314 314 313 313 315 318 315 324 323 325 322 310 307 307
298 299 301 307 310 311 305 302 303 312 319 318 320 320 319 320 319 319 320 320 321 319 319 317 318 313 312 314 317 317 316 315 315 317 318 313 322 322 321 317 308 307 306
299 301 303 305 307 310 305 300 304 314 316 317 317 318 320 321 310 307 318 316 315 315 311 308 307 305 303 305 313 323 319 319 318 315 317 316 315 319 320 316 312 308 304
300 300 302 308 308 309 304 300 306 313 315 315 321 321 311 317 302 304 316 314 312 314 316 313 311 306 305 306 313 317 316 314 314 312 316 315 318 319 316 317 313 313 310
Wind_Speed
7 6 6 5 5 4 6 6 6 6 6 6 5 6 6 6 6 4 4 12 12 11 13 13 12 13 13 12 12 11 12 12 11 12 13 13 13 13 13 13 13 13 13
9 9 7 7 7 6 6 5 6 6 6 4 6 6 8 6 6 6 5 5 9 10 13 12 12 12 13 13 11 11 13 12 12 12 12 13 14 14 15 15 15 15 15
12 12 9 8 7 4 5 4 5 4 5 6 10 7 8 10 9 9 5 5 5 10 12 12 11 12 12 11 11 12 12 13 11 12 12 13 13 15 16 17 17 16 16
15 10 8 9 6 4 4 3 4 5 6 5 5 6 7 7 8 6 5 4 4 3 8 12 12 13 12 13 11 10 11 12 11 12 11 13 14 15 16 17 17 18 17
13 11 9 8 8 7 7 6 6 4 3 4 4 4 4 5 5 4 7 7 7 5 4 6 12 14 13 11 10 10 12 13 12 12 11 11 12 15 16 17 19 18 19
11 10 9 10 8 8 7 6 8 4 5 4 5 7 4 4 4 6 9 5 5 6 6 7 5 6 11 11 12 11 10 13 11 11 9 10 12 16 16 17 20 19 19
7 8 8 8 6 9 10 10 8 10 7 4 2 3 4 6 7 8 4 7 8 7 6 6 4 4 4 10 10 12 12 11 12 7 3 9 13 15 15 18 18 18 18
6 6 9 9 7 7 9 10 11 8 8 7 4 2 4 5 8 10 7 9 9 5 7 7 6 5 5 4 6 10 9 9 4 5 8 10 9 11 15 16 14 15 18
12 15 9 10 5 6 9 8 11 15 12 7 12 7 2 7 1 2 8 8 11 5 5 5 6 6 6 5 6 7 7 7 5 8 10 8 10 12 15 15 14 15 16
11 11 13 12 9 7 7 10 8 11 12 12 3 10 3 4 4 4 2 4 5 7 7 6 5 6 6 5 7 7 6 3 6 9 8 9 11 14 16 12 13 13 16
5 6 8 8 9 7 14 13 12 11 9 10 8 4 11 4 2 3 4 4 2 5 7 6 5 6 6 5 5 4 5 6 7 7 6 8 11 13 14 8 7 8 9
4 6 6 6 8 10 12 12 15 16 10 10 7 7 5 5 8 4 4 5 4 4 3 3 5 5 5 5 6 6 7 8 7 6 4 6 8 9 10 4 3 11 8
4 6 6 6 5 8 11 12 12 12 13 12 13 6 2 3 3 4 6 5 5 4 3 4 4 5 5 5 5 8 8 7 6 5 4 5 5 5 4 4 4 3 3
6 6 7 6 7 7 8 10 11 11 13 10 11 6 3 4 5 10 9 9 4 4 2 5 2 5 5 4 6 10 5 8 7 7 4 3 4 4 5 5 4 5 1
6 8 7 7 6 6 7 9 9 12 12 14 13 10 4 7 8 9 14 12 12 11 8 4 4 5 4 4 5 5 6 7 8 8 7 4 2 1 1 2 1 3 5
7 7 8 7 7 7 7 8 9 11 13 11 11 12 12 11 12 12 12 9 9 11 12 6 6 4 5 3 5 5 6 6 8 8 7 5 4 3 3 1 1 3 3
8 9 7 8 7 7 8 9 10 13 15 15 15 14 16 15 13 13 12 8 10 7 10 4 2 4 4 4 3 4 4 5 4 7 6 7 7 7 6 5 4 2 4
8 8 10 10 9 10 10 11 11 12 15 17 17 16 17 8 9 6 4 4 4 7 5 9 5 4 5 5 5 4 4 3 5 5 7 8 8 7 7 6 5 4 3
8 8 9 10 11 10 10 11 13 14 17 19 17 17 17 14 12 9 7 5 4 7 5 6 6 3 4 2 2 2 3 3 3 4 5 7 7 6 6 7 7 7 7
9 10 10 11 11 12 13 12 13 16 18 18 19 18 18 20 18 16 12 13 14 10 9 9 5 4 3 4 2 3 2 2 3 1 2 5 7 5 6 6 6 7 7
14 14 15 12 11 12 10 12 14 16 18 17 17 19 20 23 27 22 14 16 18 17 11 9 5 4 4 3 4 3 3 1 2 2 2 2 3 2 3 5 5 8 8
16 16 17 16 11 10 15 17 17 16 19 18 17 17 16 15 14 17 14 22 19 16 12 10 5 5 5 5 4 5 4 3 2 2 2 1 3 2 3 3 6 7 7
13 12 15 16 10 12 18 16 15 11 14 14 14 13 10 9 11 10 4 3 8 13 14 8 12 7 6 8 7 4 4 3 4 3 3 0 2 1 3 3 9 9 9
13 12 14 16 8 10 16 13 11 8 9 8 8 10 13 12 13 13 10 6 5 8 13 10 14 10 6 8 7 7 7 5 2 1 2 2 1 3 3 3 7 8 8
12 11 11 14 10 10 11 10 5 7 6 9 10 12 13 15 18 19 14 11 10 6 5 7 10 11 11 11 9 7 4 4 2 3 3 4 3 3 3 2 2 8 7
10 10 13 13 12 10 11 10 11 4 4 5 5 7 14 13 21 21 17 14 11 7 9 6 5 7 8 6 10 4 6 4 3 2 4 5 3 4 3 3 1 3 4
Wind_Direction
203 205 212 205 212 208 218 221 221 227 232 232 237 241 256 259 257 254 261 272 271 250 226 224 231 236 238 234 230 232 237 234 237 234 232 235 239 241 240 234 232 229 223
201 202 211 218 221 212 217 219 214 220 232 223 243 237 250 253 253 247 244 265 264 227 225 226 235 234 241 241 236 233 239 240 237 238 233 232 235 235 238 237 232 231 226
212 202 199 213 221 222 249 257 247 225 232 222 233 219 226 236 239 241 243 250 256 239 232 230 234 237 242 249 244 239 241 246 245 241 236 230 231 235 235 238 239 235 229
200 212 219 212 196 188 195 229 257 273 277 264 262 262 270 266 256 251 239 243 244 238 236 235 232 234 234 241 242 245 246 249 244 243 237 231 230 234 234 236 238 237 235
195 207 214 214 188 194 191 215 226 218 245 282 289 283 277 266 268 261 245 228 225 218 223 238 236 232 231 237 241 239 244 248 240 242 239 240 240 238 236 235 237 234 235
213 215 222 223 217 207 211 206 231 201 206 215 252 267 253 263 268 259 253 261 235 222 221 225 231 231 231 237 239 239 246 257 252 248 245 241 242 245 238 235 237 233 233
222 218 231 243 222 220 215 202 198 216 240 191 193 278 260 236 239 251 257 253 249 238 217 228 221 215 230 234 243 245 250 256 255 261 285 257 250 251 247 240 241 243 225
220 233 223 215 211 238 229 220 207 222 237 181 193 132 293 311 244 233 230 236 247 233 231 220 209 221 229 227 239 247 253 255 268 264 275 261 255 265 261 259 256 243 220
218 228 254 275 221 219 237 224 229 225 232 201 204 195 208 232 336 222 233 221 236 225 223 214 216 222 219 220 233 248 231 246 264 292 284 300 307 299 277 272 266 231 215
225 217 214 229 239 226 247 245 237 239 240 234 213 226 177 146 208 311 273 267 223 209 216 212 192 213 213 209 230 244 259 231 268 282 300 309 316 303 294 277 268 230 212
255 223 218 219 231 238 239 241 242 233 233 242 229 195 221 181 176 161 271 300 315 244 232 220 164 203 203 214 237 246 249 241 252 270 306 319 311 313 320 302 334 261 215
242 240 240 231 225 224 229 228 230 227 227 227 231 246 226 183 200 189 220 249 235 278 260 202 189 200 216 216 233 233 229 240 250 274 286 299 313 330 331 60 214 260 238
259 251 231 223 217 227 233 232 230 229 219 224 225 212 224 306 260 226 218 233 238 247 276 228 183 206 224 220 219 211 215 214 235 246 259 293 323 334 329 95 77 29 61
239 233 243 244 238 227 234 233 233 228 217 201 190 186 176 255 281 287 238 224 249 259 271 244 212 211 219 218 213 190 194 200 202 221 211 261 291 298 314 321 147 113 64
243 244 238 239 244 242 243 241 232 230 217 216 223 213 220 250 233 249 263 241 229 240 245 241 211 214 213 211 205 173 205 203 201 206 191 209 219 197 164 221 142 122 113
271 263 244 241 250 254 253 251 237 227 221 219 213 201 212 230 240 247 246 227 220 224 244 182 208 204 180 203 185 185 211 217 200 201 193 201 190 170 165 166 223 185 166
279 265 253 255 242 239 247 251 248 229 229 227 219 211 219 221 222 225 237 218 230 225 228 248 189 193 163 189 195 213 220 213 204 209 211 188 178 176 180 182 191 227 144
278 273 266 249 236 242 238 243 249 227 227 230 226 217 211 175 150 139 126 117 288 220 209 232 216 195 196 206 202 190 213 217 240 217 201 206 189 193 188 185 182 179 171
259 266 264 259 255 248 245 242 245 239 222 223 222 214 207 174 162 160 170 165 210 206 203 239 223 191 206 186 181 173 189 221 254 238 206 194 203 201 193 185 187 184 167
265 269 268 262 260 263 260 253 254 247 237 225 216 204 194 190 189 184 191 211 206 203 201 249 215 195 164 214 139 162 199 239 227 204 150 175 167 202 212 202 194 178 146
276 273 268 263 263 266 261 256 259 255 234 215 207 204 203 200 198 206 200 209 195 197 194 200 187 194 169 162 186 181 143 146 274 196 156 177 148 140 198 204 198 178 143
269 266 258 253 261 273 257 253 257 259 234 215 205 202 205 202 169 171 201 194 188 191 205 170 153 205 191 186 162 154 125 135 221 221 132 42 141 169 185 200 185 165 161
262 269 269 256 237 268 262 255 257 252 244 235 221 204 192 183 171 163 155 138 153 161 163 155 184 192 167 182 151 143 136 167 197 220 102 126 144 195 172 172 157 168 168
268 267 268 263 235 256 254 254 247 242 247 230 207 181 183 183 184 170 156 186 190 182 164 185 171 176 168 158 154 158 156 162 120 62 119 167 167 119 73 52 148 167 150
280 270 271 265 253 249 258 249 253 248 256 218 202 194 189 192 180 146 137 154 167 158 156 126 112 138 135 149 141 127 150 143 168 195 182 136 182 114 99 90 141 146 129
289 278 279 270 274 267 257 250 205 229 267 273 207 167 168 163 156 144 143 158 145 156 147 130 106 97 121 111 153 147 152 144 161 228 187 146 149 140 137 101 142 148 126